User: anonymous   Login
Location: Unspecified
(0.0000°N, 0.0000°E)
Time: 05:03:24
(UTC+00:00)
Language:

Kosmos-1506 - Orbit

View from above orbital plane
View from above orbital plane
View from above satellite
View from above satellite

Ground track
Ground track

The orbit data is extracted from the following two-line orbital elements,

1 14450U 83108A   18267.40579480 +.00000020 +00000-0 +51536-5 0  9992
2 14450 082.9324 211.0403 0042356 333.5891 145.2610 13.76238955569634
Epoch (UTC): 24 September 2018 09:44:20
Eccentricity: 0.0042356
inclination: 82.9324°
perigee height: 946 km
apogee height: 1008 km
right ascension of ascending node: 211.0403°
argument of perigee: 333.5891°
revolutions per day: 13.76238955
mean anomaly at epoch: 145.2610°
orbit number at epoch: 56963

The dashed part of the orbit path shows where the satellite is in the earth's shadow,  

DLR